User: anonymous   Login
Location: Caltech
(34.1382°N, 118.1253°W)
Time: 12:57:08
(UTC-07:00)
Language:

Cosmos 2219 Rocket - Orbit

View from above orbital plane
View from above orbital plane
View from above satellite
View from above satellite

Ground track
Ground track

The orbit data is extracted from the following two-line orbital elements,

1 22220U 92076B   17291.91875459 -.00000000 +00000-0 +24005-4 0  9996
2 22220 070.9990 158.8015 0010637 083.1818 005.2868 14.16419793287964
Epoch (UTC): 18 October 2017 22:03:00
Eccentricity: 0.0010637
inclination: 70.9990°
perigee height: 830 km
apogee height: 845 km
right ascension of ascending node: 158.8015°
argument of perigee: 83.1818°
revolutions per day: 14.16419793
mean anomaly at epoch: 5.2868°
orbit number at epoch: 28796

The dashed part of the orbit path shows where the satellite is in the earth's shadow,  

DLR